Other Public Products
Issued by NWS Grand Forks, ND

Home | Current Version | Previous Version | Graphics & Text | Print | Product List | Glossary On
Versions: 1 2 3 4 5 6 7 8 9 10 11 12 13 14 15 16 17 18 19 20 21 22 23 24 25 26 27 28 29 30 31 32 33 34 35 36 37 38 39 40 41 42 43 44 45 46 47 48 49 50
000
FPUS83 KFGF 131431
OPUFGF
PRAIRIE TO PINES WEATHER ROUNDUP
NATIONAL WEATHER SERVICE EASTERN NORTH DAKOTA/GRAND FORKS ND
800 AM CST WED DEC 13 2017

 **SATELLITE DATA USED TO AUGMENT SKY COVER AT AUTOMATED STATIONS**
 *****  WEATHER ACROSS EASTERN NORTH DAKOTA  *****

CITY           SKY/WX    TMP DP  RH WIND       PRES   REMARKS
GRAND FORKS    CLOUDY    28  24  85 N29G39    29.71R WCI  12
GRND FORKS AFB CLOUDY    28  25  86 N20G30    29.72R WCI  15
GRND FORKS NWS   N/A     27 N/A N/A N15         N/A  WCI  15
BUXTON           N/A     28  25  87 N29G43      N/A  WCI  12
DEVILS LAKE    CLOUDY    31  27  85 N20       29.75F WCI  19
FARGO          CLOUDY    30  25  81 N32G45    29.71R WCI  14
WAHPETON ARPT  CLOUDY    32  27  80 N30G41    29.68R WCI  18
$$

 *****  WEATHER ACROSS CENTRAL AND WESTERN NORTH DAKOTA  *****

CITY           SKY/WX    TMP DP  RH WIND       PRES   REMARKS
JAMESTOWN      CLOUDY    35  31  85 NW22G28   29.74R WCI  23
BISMARCK       FAIR      35  30  82 NW18G28   29.86R WCI  24
MINOT          CLOUDY    35  28  75 W20G28    29.86R WCI  24
MINOT AFB      CLOUDY    33  28  80 NW21      29.84R WCI  21
GARRISON         N/A     32  29  88 NW23G33   29.86R WCI  19
WILLISTON      FAIR      33  27  78 NW16G26   29.99R WCI  23
DICKINSON      FAIR      31  26  82 NW23G30   29.93R WCI  18
HETTINGER      FAIR      31  24  75 NW22G30   29.96R WCI  18
$$

 *****  OTHER OBSERVATIONS NORTHEAST NORTH DAKOTA  *****

CITY           SKY/WX    TMP DP  RH WIND       PRES   REMARKS
WALHALLA       FAIR      27  27 100 N14G22    29.74S WCI  15
LANGDON        CLOUDY    28  30 100 N24G33    29.72R WCI  14
CAVALIER       CLOUDY    27  25  93 N21G29    29.73R FOG     WCI  13
GRAFTON        CLOUDY    27  25  93 N24G30    29.74R WCI  12
CANDO          CLOUDY    32  32 100 N12       29.79R WCI  23
FORT TOTTEN      N/A     31  29  92 N7        29.95S WCI  24
ROLLA          CLOUDY    30  30 100 N14       29.76R WCI  20
RUGBY          CLOUDY    34  28  80 N24G33    29.78R WCI  21
 ***** THE ABOVE OBSERVATIONS ARE NON NWS ARE NOT QUALITY
        CONTROLLED AND MAY MIS-REPORT RAIN FOR SNOW...
$$

 *****  OTHER OBSERVATIONS SOUTHEAST NORTH DAKOTA *****

CITY           SKY/WX    TMP DP  RH WIND       PRES   REMARKS
COOPERSTOWN    CLOUDY    32  28  86 N26G36    29.73R WCI  18
VALLEY CITY    FLURRIES  32  32 100 N23G31    29.75R WCI  19
OAKES            N/A     34  34 100 NW23      29.73R WCI  22
GWINNER          N/A     36  32  87 N18G24    29.72R
SHEYENNE NWR     N/A     34  34  99 N14       29.95S WCI  25
BUFFALO          N/A     32  28  84 SW22G37     N/A  WCI  20
WYNDMERE       NOT AVBL
 ***** THE ABOVE OBSERVATIONS ARE NON NWS ARE NOT QUALITY
       CONTROLLED AND MAY MIS-REPORT RAIN FOR SNOW...
$$

  *****  WEATHER ACROSS NORTHERN MINNESOTA  *****

CITY           SKY/WX    TMP DP  RH WIND       PRES   REMARKS
FLAG ISLAND    LGT SNOW  12  10  92 N10       29.65S WCI  -1
WARROAD        FLURRIES  16  10  79 N8        29.66R WCI   5
ROSEAU         CLOUDY    18  12  79 N10       29.67R WCI   6
HALLOCK        CLOUDY    25  21  86 N18       29.71R WCI  11
THF RVR FALLS  CLOUDY    21  19  92 N21       29.65R WCI   5
HALSTAD        NOT AVBL
FOSSTON        CLOUDY    19  18  93 N22       29.64R FOG     WCI   3
BAUDETTE       FLURRIES  14  11  87 N7        29.63R WCI   4
WASKISH        CLOUDY    16  14  93 N5        29.61R FOG     WCI   9
CROOKSTON      CLOUDY    25  23  93 N25       29.70R WCI   9
$$
  *****  WEATHER ACROSS CENTRAL AND WEST MINNESOTA  *****

CITY           SKY/WX    TMP DP  RH WIND       PRES   REMARKS
BEMIDJI        CLOUDY    18  17  94 N13G21    29.58R FOG     WCI   5
PARK RAPIDS    CLOUDY    24  21  88 N15       29.53R WCI  11
WADENA         CLOUDY    25  25 100 NW15      29.55R WCI  12
DETROIT LAKES  CLOUDY    25  23  93 NW25G35   29.62R WCI   9
MOORHEAD       CLOUDY    27  25  93 N29G37    29.70R WCI  11
FERGUS FALLS   CLOUDY    27  25  93 N26G43    29.67R FOG     WCI  11
ELBOW LAKE     CLOUDY    27  24  91 NW28G43   29.62R WCI  11
MORRIS MN      CLOUDY    30  27  86 NW39G52   29.60R WCI  13
STAPLES        CLOUDY    27  25  93 NW20G28   29.52R WCI  13
WHEATON        CLOUDY    32  27  80 NW22G31   29.69R WCI  19
$$
  *****  WEATHER ELSEWHERE ACROSS MINNESOTA  *****

CITY           SKY/WX    TMP DP  RH WIND       PRES   REMARKS
DULUTH         LGT SNOW  20  18  92 NE9       29.45R VSB 1   WCI   9
INTRNTL FALLS  HVY SNOW  15  10  80 NE6       29.61R VSB 1/4 WCI   6
ELY            LGT SNOW  18  16  93 NE3       29.53R
CLOQUET        LGT SNOW  18  16  93 CALM      29.46R
BRAINERD       CLOUDY    21  17  84 N14       29.50R WCI   8
HIBBING        FLURRIES  18  15  88 N8        29.52R WCI   8
ALEXANDRIA     CLOUDY    28  25  88 N23G33    29.54R WCI  14
SAINT CLOUD    CLOUDY    25  23  92 NW12G18   29.45R WCI  14
MINNEAPOLIS    FLURRIES  26  25  96 N10       29.43R WCI  16
$$

  *****  WEATHER ACROSS SOUTH DAKOTA  *****

CITY           SKY/WX    TMP DP  RH WIND       PRES   REMARKS
SIOUX FALLS    CLOUDY    41  34  76 NW29G40   29.64R
BROOKINGS      CLOUDY    37  31  78 NW28G40   29.64R
WATERTOWN      CLOUDY    35  33  92 NW26G33   29.65R WCI  22
HURON          CLOUDY    39  30  70 NW23G29   29.77R
SISSETON         N/A     35  32  88 NW21      29.66R WCI  24
ABERDEEN       CLOUDY    37  31  78 NW23G32   29.75R
MITCHELL       FAIR      42  30  62 NW28G37   29.75R
PIERRE         FAIR      40  28  62 NW28G35   29.88R
MOBRIDGE       FAIR      38  28  67 NW22G29   29.82R
RAPID CITY     FAIR      42  17  36 NW32G40   30.00R
$$

  *****  SOME WEATHER IN NEARBY STATES *****

CITY           SKY/WX    TMP DP  RH WIND       PRES   REMARKS
GLASGOW MT     FAIR      31  24  75 NW12      30.12R WCI  22
GREAT FALLS MT FAIR      27  15  61 CALM      30.22F
CHEYENNE WY    FAIR      34   8  33 N8        30.15R
SCOTTSBLUFF NE FAIR      33  15  47 NW12      30.11R WCI  24
OMAHA NE       FAIR      50  27  40 NW24G38   29.66R
DES MOINES IA  CLOUDY    46  27  47 NW23G29   29.50S
DAVENPORT IA   FAIR      32  22  66 SW18G25   29.45F WCI  20
CHICAGO IL     CLOUDY    28  14  55 S17       29.54F WCI  16
EAU CLAIRE WI  FAIR      21  15  78 E10       29.35F WCI  10
LA CROSSE WI   FAIR      30  23  75 S5        29.33F
$$

  *****  SOME NATIONAL WEATHER *****

CITY           SKY/WX    TMP DP  RH WIND       PRES   REMARKS
LA GUARDIA NY  FAIR      23   8  52 W18G37    29.56R WCI   9
RALEIGH NC     FAIR      29   9  43 NW9       29.99R WCI  20
ATLANTA GA     FAIR      31  11  43 W8        30.06R WCI  23
NEW ORLEANS LA FAIR      42  38  85 CALM      30.18S
OKLAHOMA CITY  FAIR      39  20  46 SW7       29.94R
ALBUQUERQUE NM FAIR      26   5  40 CALM      30.22R
SALT LAKE CITY CLOUDY    23  22  96 CALM      30.36F FOG
LOS ANGELES CA FAIR      55  18  23 E3        30.00S
BOISE ID       CLOUDY    22  20  92 CALM      30.46S FOG
SEATTLE WA     FAIR      36  32  85 N8        30.41R
$$

*** WEATHER ACROSS MANITOBA...SASKATCHEWAN AND ONTARIO ***
                ***ONTARIO***

CITY           SKY/WX    TMP DP  RH WIND       PRES   REMARKS
GERALDTON      FOG      -13 -15  92 E6        29.80R VSB 1   WCI -27
THUNDER BAY    LGT SNOW  16  14  93 NE17G23   29.67S WCI   0
SIOUX LOOKOUT  CLOUDY     3   0  85 E3        29.70R
TORONTO        PTCLDY    12   3  67 NW13G21   29.71R WCI  -3
BIG TROUT LK   LGT SNOW -27 -35  68 W2        29.91R
PICKLE LAKE    FOG      -18 -24  76 E5        29.79R VSB 1   WCI -31
DRYDEN         LGT SNOW   9   5  85 NE9       29.65R WCI  -5
KENORA         LGT SNOW  10   7  85 NE6       29.66R WCI   1
$$
                *** MANITOBA***

CITY           SKY/WX    TMP DP  RH WIND       PRES   REMARKS
BRANDON        CLOUDY    32  27  80 NW17      29.79R WCI  21
DAUPHIN        CLOUDY    23  23 100 NE13      29.87R FOG     WCI  11
ISLAND LAKE    PTCLDY    -8 -11  84 NE5       29.86R WCI -19
PILOT MOUND      N/A     28  25  86 N17G23      N/A  WCI  16
THE PAS        CLOUDY    16  10  79 N8        29.94R WCI   5
THOMPSON       PTCLDY    -4  -9  77 CALM      29.91R
WINNIPEG       FRZ DRZL  21  18  86 N12G18    29.74R WCI   9
LYNN LAKE      CLEAR     -4  -6  92 W8        29.92R WCI -19
CHURCHILL      PTCLDY   -18 -24  76 W5        30.00R WCI -31
GILLAM         PTCLDY   -22 -27  76 VRB2      29.97R
$$
                ***SASKATCHEWAN***

CITY           SKY/WX    TMP DP  RH WIND       PRES   REMARKS
ESTEVAN        CLOUDY    32  27  80 NW17G25   29.94R WCI  21
KINDERSLEY     MOCLDY    28  25  86 W9        30.09S WCI  20
LLOYDMINSTER   MOCLDY    32  28  86 W9        30.05S WCI  24
PRINCE ALBERT  PTCLDY    28  25  86 NW9       29.98R WCI  20
REGINA         PTCLDY    28  25  86 NW13      29.97R WCI  18
YORKTON        CLOUDY    32  28  86 NW14G21   29.87S WC


USA.gov is the U.S. government's official web portal to all federal, state and local government web resources and services.